Location: LDNL
(36.4545°S, 141.6685°E)
Time: 22:20:06
(UTC+11:00)

Courier 1B - All Passes

Search period start: 30 January 2023 00:00
Search period end: 09 February 2023 00:00
Orbit: 962 x 1209 km, 28.3° (Epoch: 29 January)

Date Brightness Start Highest point End Pass type
(mag) Time Alt. Az. Time Alt. Az. Time Alt. Az.
30 Jan - 01:57:34 10° NNW 02:02:35 19° NNE 02:07:41 10° ENE visible
30 Jan - 03:49:02 10° NW 03:56:06 37° NNE 04:03:11 10° ENE visible
30 Jan - 05:42:30 10° WNW 05:49:59 47° N 05:57:17 10° ENE visible
30 Jan - 07:36:48 10° WNW 07:43:48 36° NNW 07:50:31 10° NE daylight
30 Jan - 09:32:32 10° WNW 09:37:11 17° NNW 09:41:40 10° N daylight
31 Jan - 01:05:18 10° N 01:08:54 14° NNE 01:12:32 10° ENE night (unlit)
31 Jan - 02:55:33 10° NW 03:02:17 32° NNE 03:09:06 10° ENE visible
31 Jan - 04:48:38 10° WNW 04:56:05 46° N 05:03:28 10° ENE visible
31 Jan - 06:42:42 10° WNW 06:49:58 41° N 06:57:01 10° NE daylight
31 Jan - 08:37:49 10° WNW 08:43:31 23° NNW 08:49:01 10° NNE daylight
01 Feb - 02:02:15 10° NNW 02:08:29 27° NNE 02:14:51 10° ENE visible
01 Feb - 03:54:51 10° WNW 04:02:11 44° N 04:09:33 10° ENE visible
01 Feb - 05:48:42 10° WNW 05:56:06 45° N 06:03:23 10° ENE visible
01 Feb - 07:43:23 10° WNW 07:49:48 28° NNW 07:56:00 10° NE daylight
02 Feb - 01:09:14 10° NNW 01:14:45 22° NNE 01:20:25 10° ENE night (unlit)
02 Feb - 03:01:11 10° NW 03:08:18 41° NNE 03:15:34 10° ENE visible
02 Feb - 04:54:45 10° WNW 05:02:12 47° N 05:09:37 10° ENE visible
02 Feb - 06:49:08 10° WNW 06:56:01 33° NNW 07:02:43 10° NE daylight
02 Feb - 08:45:32 10° WNW 08:49:22 14° NNW 08:53:08 10° N daylight
03 Feb - 00:16:37 10° N 00:21:04 17° NNE 00:25:38 10° ENE night (unlit)
03 Feb - 02:07:40 10° NW 02:14:28 36° NNE 02:21:29 10° ENE visible
03 Feb - 04:00:54 10° WNW 04:08:18 47° N 04:15:47 10° ENE visible
03 Feb - 05:55:02 10° WNW 06:02:11 38° NNW 06:09:14 10° NE visible
03 Feb - 07:50:29 10° WNW 07:55:42 19° NNW 08:00:48 10° NNE daylight
03 Feb - 23:24:51 10° N 23:27:26 12° NNE 23:30:04 10° NE night (unlit)
04 Feb - 01:14:19 10° NW 01:20:41 31° NNE 01:27:18 10° ENE night (unlit)
04 Feb - 03:07:09 10° WNW 03:14:24 46° N 03:21:51 10° ENE visible
04 Feb - 05:01:02 10° WNW 05:08:19 42° N 05:15:36 10° ENE visible
04 Feb - 06:55:54 10° WNW 07:01:58 24° NNW 07:07:56 10° NNE daylight
05 Feb - 00:21:11 10° NNW 00:26:57 25° NNE 00:32:58 10° ENE night (unlit)
05 Feb - 02:13:29 10° WNW 02:20:32 43° N 02:27:51 10° ENE visible
05 Feb - 04:07:07 10° WNW 04:14:25 45° N 04:21:51 10° ENE visible
05 Feb - 06:01:36 10° WNW 06:08:11 30° NNW 06:14:43 10° NE visible
05 Feb - 07:59:13 10° NW 08:01:32 11° NNW 08:03:49 10° NNW daylight
05 Feb - 23:28:21 10° NNW 23:33:17 20° NNE 23:38:25 10° ENE night (unlit)
06 Feb - 01:19:57 10° NW 01:26:42 39° NNE 01:33:46 10° ENE night (unlit)
06 Feb - 03:13:18 10° WNW 03:20:32 47° N 03:27:59 10° ENE visible
06 Feb - 05:07:28 10° WNW 05:14:22 35° NNW 05:21:18 10° NE visible
06 Feb - 07:03:25 10° WNW 07:07:51 16° NNW 07:12:14 10° N daylight
06 Feb - 22:36:01 10° N 22:39:40 15° NNE 22:43:26 10° ENE visible
07 Feb - 00:26:34 10° NW 00:32:56 34° NNE 00:39:38 10° ENE night (unlit)
07 Feb - 02:19:33 10° WNW 02:26:39 46° N 02:34:03 10° ENE visible
07 Feb - 04:13:29 10° WNW 04:20:31 39° NNW 04:27:42 10° NE visible
07 Feb - 06:08:37 10° WNW 06:14:06 21° NNW 06:19:36 10° NNE visible
07 Feb - 23:33:20 10° NW 23:39:13 28° NNE 23:45:23 10° ENE visible
08 Feb - 01:25:55 10° WNW 01:32:48 44° N 01:40:04 10° ENE night (unlit)
08 Feb - 03:19:35 10° WNW 03:26:39 43° N 03:33:57 10° ENE visible
08 Feb - 05:14:13 10° WNW 05:20:20 26° NNW 05:26:32 10° NNE visible
08 Feb - 22:40:21 10° NNW 22:45:34 23° NNE 22:51:01 10° ENE visible
